Regional Weather Roundup
Issued by NWS Little Rock, AR

Home | Current Version | Previous Version | Graphics & Text | Print | Product List | Glossary On
Versions: 1 2 3 4 5 6 7 8 9 10 11 12 13 14 15 16 17 18 19 20 21 22 23 24 25 26 27
000
ASUS44 KLZK 242205
RWRLZK

WEATHER ROUNDUP FOR ARKANSAS
NATIONAL WEATHER SERVICE LITTLE ROCK AR
500 PM CDT THU APR 24 2014

NOTE: "FAIR" INDICATES FEW OR NO CLOUDS BELOW 12,000 FEET WITH NO
SIGNIFICANT WEATHER AND/OR OBSTRUCTIONS TO VISIBILITY.

ARZ001-003-010-029-242300-
NORTHWEST ARKANSAS

CITY           SKY/WX    TMP DP  RH WIND       PRES   REMARKS
FAYETTEVILLE   RAIN      61  57  88 W18G25    29.73R
FORT SMITH     CLOUDY    61  57  87 W8        29.74R
HARRISON       LGT RAIN  64  61  88 S12       29.70R
BENTONVILLE    CLOUDY    59  54  82 NW16G25   29.73R
ROGERS         LGT RAIN  60  56  86 W23G38    29.71R FOG
SILOAM SPGS    CLOUDY    57  50  77 NW14G24   29.76R
HIGHFILL       LGT RAIN  58  58 100 W13G23    29.72R FOG
SPRINGDALE     CLOUDY    61  57  88 NW17G29   29.74R
$$

ARZ004-005-016-242300-
NORTH CENTRAL ARKANSAS

CITY           SKY/WX    TMP DP  RH WIND       PRES   REMARKS
BATESVILLE     CLOUDY    64  63  94 E5        29.69F
FLIPPIN        PTSUNNY   70  55  60 S13G22    29.69S
MTN HOME       CLOUDY    69  56  62 S15       29.68F
$$

ARZ040-041-242300-
WEST CENTRAL ARKANSAS

CITY           SKY/WX    TMP DP  RH WIND       PRES   REMARKS
MENA           CLOUDY    63  59  88 W15G22    29.79R
MOUNT IDA      MOSUNNY   74  63  68 CALM      29.69F
$$

ARZ009-017-025-026-028-242300-
NORTHEAST ARKANSAS

CITY           SKY/WX    TMP DP  RH WIND       PRES   REMARKS
CORNING        FAIR      72  59  64 S15G28    29.67F
JONESBORO      TSTM      73  59  60 VRB7      29.67R
NEWPORT        LGT RAIN  65  62  90 W7        29.71R
WALNUT RIDGE   CLOUDY    70  61  73 S18       29.68S
BLYTHEVILLE    PTSUNNY   79  50  36 S20       29.72S
$$

ARZ022-023-033-042-044-242300-
CENTRAL ARKANSAS

CITY           SKY/WX    TMP DP  RH WIND       PRES   REMARKS
LITTLE ROCK    LGT RAIN  68  64  88 SW8       29.74S VSB 1
N LITTLE ROCK  CLOUDY    67  66  97 SW9G15    29.74S
JACKSONVILLE   LGT RAIN  68  67  95 SW9       29.73R FOG
SEARCY         LGT RAIN  68  63  84 W5        29.72S
HOT SPRINGS    PTSUNNY   73  66  78 SW5       29.73S
RUSSELLVILLE   MOSUNNY   68  64  88 NW6       29.74R
CLINTON        CLOUDY    64  64 100 CALM      29.72F THUNDER FOG
$$

ARZ036-242300-
EAST ARKANSAS

CITY           SKY/WX    TMP DP  RH WIND       PRES   REMARKS
WEST MEMPHIS   PTSUNNY   78  56  46 S22G30    29.68F
$$

ARZ050-053-066-070-073-242300-
SOUTHWEST ARKANSAS

CITY           SKY/WX    TMP DP  RH WIND       PRES   REMARKS
ARKADELPHIA    FAIR      76  68  76 S10       29.72F
CAMDEN         PTSUNNY   72  66  83 MISG      29.75F
TEXARKANA      SUNNY     81  61  50 SW18      29.73F
EL DORADO      RAIN      69  68  96 SW8       29.79R FOG
DE QUEEN       LGT RAIN  81  62  52 SW23G29   29.68F
$$

ARZ056-057-069-242300-
SOUTHEAST ARKANSAS

CITY           SKY/WX    TMP DP  RH WIND       PRES   REMARKS
PINE BLUFF     LGT RAIN  69  66  90 W7        29.74R FOG
STUTTGART      CLOUDY    66  63  88 S6        29.75S THUNDER
MONTICELLO     TSTM      70  66  87 SW6       29.73R FOG

$$





USA.gov is the U.S. government's official web portal to all federal, state and local government web resources and services.